GW4053 Weather Reports


Display with metric or nautical units.
time (UTC)temp
F
wind
direction
speed
MPH
gust
MPH
rain 1hr
in
rain 24hr
in
rain mn
in
humidity
%
barometer
mb
20260503224821 61 297 4.0 6.0 0.00 0.00 0.00 61 1020.6
20260503223821 61 270 2.0 4.0 0.00 0.00 0.00 59 1020.6
20260503222821 62 285 2.0 5.0 0.00 0.00 0.00 59 1020.6
20260503221821 61 290 2.0 6.0 0.00 0.00 0.00 58 1020.3
20260503220821 62 259 2.0 4.0 0.00 0.00 0.00 57 1020.4
20260503215821 62 279 2.0 4.0 0.00 0.00 0.00 57 1020.5
20260503214821 62 282 3.0 4.0 0.00 0.00 0.00 56 1020.2
20260503213822 62 270 2.0 6.0 0.00 0.00 0.00 56 1020.2
20260503212721 62 270 2.0 4.0 0.00 0.00 0.00 56 1020.2
20260503211721 63 282 2.0 5.0 0.00 0.00 0.00 56 1020.0
20260503210721 63 280 2.0 4.0 0.00 0.00 0.00 55 1020.2
20260503205721 63 288 2.0 5.0 0.00 0.00 0.00 55 1020.1
20260503204721 64 270 2.0 4.0 0.00 0.00 0.00 55 1020.2
20260503203721 64 270 2.0 4.0 0.00 0.00 0.00 54 1020.2
20260503202721 64 270 2.0 3.0 0.00 0.00 0.00 54 1020.1
20260503201721 65 289 2.0 4.0 0.00 0.00 0.00 54 1020.1
20260503200721 65 270 2.0 6.0 0.00 0.00 0.00 52 1020.0
20260503195721 65 295 2.0 5.0 0.00 0.00 0.00 53 1019.8
20260503194721 65 286 2.0 4.0 0.00 0.00 0.00 53 1019.9
20260503193621 66 291 2.0 5.0 0.00 0.00 0.00 53 1019.8
20260503192621 66 305 3.0 6.0 0.00 0.00 0.00 53 1019.5
20260503191621 66 299 2.0 5.0 0.00 0.00 0.00 52 1019.5
20260503190621 66 291 2.0 4.0 0.00 0.00 0.00 52 1019.3
20260503185621 67 292 2.0 4.0 0.00 0.00 0.00 51 1019.2
20260503184621 67 289 2.0 4.0 0.00 0.00 0.00 51 1019.1
20260503183721 67 304 2.0 5.0 0.00 0.00 0.00 51 1018.9
20260503182607 67 307 3.0 6.0 0.00 0.00 0.00 51 1018.8
20260503181606 68 305 4.0 7.0 0.00 0.00 0.00 50 1018.7
20260503180607 68 306 4.0 8.0 0.00 0.00 0.00 49 1018.6
20260503175606 69 310 3.0 6.0 0.00 0.00 0.00 48 1018.5
20260503174606 69 293 5.0 9.0 0.00 0.00 0.00 47 1018.4
20260503174106 70 296 5.0 11.0 0.00 0.00 0.00 47 1018.5
20260503173606 70 298 4.0 10.0 0.00 0.00 0.00 46 1018.4
20260503173112 71 284 5.0 9.0 0.00 0.00 0.00 45 1018.4
20260503172506 71 291 6.0 9.0 0.00 0.00 0.00 45 1018.3
20260503172008 72 279 6.0 14.0 0.00 0.00 0.00 44 1018.3
20260503171508 72 282 5.0 9.0 0.00 0.00 0.00 44 1018.4
20260503171007 72 278 6.0 14.0 0.00 0.00 0.00 44 1018.3
20260503170506 72 270 5.0 12.0 0.00 0.00 0.00 44 1018.4
20260503150906 73 250 11.0 23.0 0.00 0.00 0.00 44 1018.4